Location: Unspecified
(0.0000°N, 0.0000°E)
Time: 17:58:31
(UTC+00:00)

Vanguard 1 - Pass Details

Date: 18 December 2025
Orbit: 651 x 3820 km, 34.2° (Epoch: 14 January)

Event Time Altitude Azimuth Distance (km) Brightness Sun altitude
Rises 20:57:29 0° 251° (WSW) 7,795 15.5 -40.6°
Reaches altitude 10° 21:05:49 10° 236° (SW) 6,920 15.0 -42.3°
Maximum altitude 21:20:31 20° 196° (SSW) 5,845 14.2 -45.4°
Drops below altitude 10° 21:33:11 10° 155° (SSE) 5,879 14.0 -48.0°
Sets 21:39:21 0° 138° (SE) 6,344 14.2 -49.2°
